Somerville, NJ

6:33 AM EDT on May 26, 2017 (GMT -0400)
Somerset

Weather History for KSMQ - July, 2013

Change the Weather History Date:

Thursday, July 18, 2013

  Actual Average Record
Temperature  
Mean Temperature 84 °F -  
Max Temperature 97 °F 87 °F 102 °F (1953)
Min Temperature 71 °F 62 °F 50 °F (1976)
Cooling Degree Days 18    
Growing Degree Days 34 (Base 50)    
Moisture  
Dew Point 73 °F    
Average Humidity 77    
Maximum Humidity 100    
Minimum Humidity 46    
Precipitation  
Precipitation 0.00 in - - ()
Sea Level Pressure  
Sea Level Pressure 30.01 in    
Wind  
Wind Speed 1 mph (NW)    
Max Wind Speed 5 mph    
Max Gust Speed -    
Visibility 7 miles    
Events      
Averages and records for this station are not official NWS values.
T = Trace of Precipitation, MM = Missing Value Source: NWS Daily Summary

Daily Weather History Graph

Daily Weather History Graph

Search for Another Location

Airport or City:

Trip Planner

Search our weather history database for the weather conditions in past years. The results will help you decide how hot, cold, wet, or windy it might be!

Date:

Astronomy

Jul. 18, 2013 Rise Set
Actual Time 5:43 AM EDT 8:26 PM EDT
Civil Twilight 5:11 AM EDT 8:58 PM EDT
Nautical Twilight 4:31 AM EDT 9:38 PM EDT
Astronomical Twilight 3:45 AM EDT 10:23 PM EDT
Moon 4:20 PM EDT (7/18) 1:31 AM EDT (7/18)
Length of Visible Light 15h 46m
Length of Day
14h 43m
Waxing Gibbous, 77% of the Moon is Illuminated
Jul 18
Waxing Gibbous
Jul 22
Full
Jul 29
Last Quarter
Aug 6
New
Aug 14
First Quarter

Hourly Weather History & Observations

Time (EDT) Temp. Heat Index Dew Point Humidity Pressure Visibility Wind Dir Wind Speed Gust Speed Precip Events Conditions
12:53 AM 75.0 °F - 73.0 °F 94% 30.07 in 6.0 mi Calm Calm - N/A   Clear
1:53 AM 73.9 °F - 72.0 °F 93% 30.05 in 4.0 mi Calm Calm - N/A   Clear
2:53 AM 73.0 °F - 72.0 °F 96% 30.04 in 3.0 mi Calm Calm - N/A   Clear
3:53 AM 73.0 °F - 72.0 °F 96% 30.03 in 4.0 mi Calm Calm - N/A   Scattered Clouds
4:06 AM 73.4 °F - 71.6 °F 94% 30.03 in 2.5 mi Calm Calm - N/A   Mostly Cloudy
4:13 AM 73.4 °F - 71.6 °F 94% 30.03 in 3.0 mi Calm Calm - N/A   Mostly Cloudy
4:53 AM 73.0 °F - 72.0 °F 96% 30.03 in 4.0 mi Calm Calm - N/A   Partly Cloudy
5:42 AM 71.6 °F - 71.6 °F 100% 30.04 in 2.5 mi Calm Calm - N/A   Clear
5:53 AM 72.0 °F - 71.1 °F 97% 30.03 in 2.5 mi Calm Calm - N/A   Clear
6:07 AM 71.6 °F - 71.6 °F 100% 30.04 in 0.8 mi Calm Calm - N/A   Clear
6:19 AM 73.4 °F - 71.6 °F 94% 30.04 in 2.0 mi Calm Calm - N/A   Clear
6:27 AM 73.4 °F - 71.6 °F 94% 30.04 in 4.0 mi Calm Calm - N/A   Clear
6:53 AM 75.0 °F - 72.0 °F 90% 30.04 in 6.0 mi Calm Calm - N/A   Clear
7:53 AM 82.0 °F 87.4 °F 73.0 °F 74% 30.05 in 9.0 mi Calm Calm - N/A   Clear
8:53 AM 86.0 °F 93.8 °F 73.9 °F 67% 30.05 in 10.0 mi Calm Calm - N/A   Clear
9:53 AM 90.0 °F 99.0 °F 73.9 °F 59% 30.05 in 10.0 mi Variable 4.6 mph - N/A   Clear
10:53 AM 91.9 °F 100.7 °F 73.0 °F 54% 30.04 in 10.0 mi NNE 3.5 mph - N/A   Clear
11:53 AM 93.0 °F 101.9 °F 73.0 °F 52% 30.04 in 10.0 mi Variable 3.5 mph - N/A   Clear
12:53 PM 95.0 °F 103.2 °F 72.0 °F 47% 30.03 in 10.0 mi Variable 4.6 mph - N/A   Partly Cloudy
1:53 PM 96.1 °F 104.9 °F 72.0 °F 46% 30.01 in 10.0 mi Variable 3.5 mph - N/A   Partly Cloudy
2:53 PM 93.9 °F 100.8 °F 71.1 °F 47% 29.99 in 10.0 mi West 3.5 mph - N/A   Clear
3:53 PM 93.9 °F 103.4 °F 73.0 °F 51% 29.97 in 10.0 mi Variable 3.5 mph - N/A   Scattered Clouds
4:53 PM 96.1 °F 104.9 °F 72.0 °F 46% 29.96 in 10.0 mi NW 3.5 mph - N/A   Partly Cloudy
5:53 PM 93.9 °F 103.4 °F 73.0 °F 51% 29.95 in 10.0 mi Calm Calm - N/A   Clear
6:53 PM 93.0 °F 101.9 °F 73.0 °F 52% 29.96 in 10.0 mi Calm Calm - N/A   Clear
7:53 PM 86.0 °F 95.1 °F 75.0 °F 70% 29.96 in 10.0 mi Calm Calm - N/A   Clear
8:53 PM 81.0 °F 87.9 °F 77.0 °F 88% 29.96 in 10.0 mi Calm Calm - N/A   Clear
9:53 PM 82.0 °F 90.2 °F 77.0 °F 85% 29.97 in 10.0 mi Calm Calm - N/A   Clear
10:53 PM 78.1 °F - 75.9 °F 93% 29.95 in 7.0 mi Calm Calm - N/A   Clear
11:53 PM 78.1 °F - 75.9 °F 93% 29.96 in 5.0 mi Calm Calm - N/A   Clear